Location: Chequamegon National Forest
(46.1070°N, 90.8420°W)
Time: 12:24:38
(UTC-05:00)

Amateur Radio Satellites - All Passes

Search period start: 23 October 2017 11:54
Search period end: 24 October 2017 11:54
Location: Chequamegon National Forest, 46.1070°N, 90.8420°W

Satellite Date Start Highest point End Downlink Frequencies (MHz)
Time Altitude Azimuth
BUGSAT 1 23 Oct 11:56:59 11:59:42 17° 62° (ENE) 12:02:26 437.445
DUCHIFAT 1 23 Oct 12:01:05 12:05:17 61° 73° (ENE) 12:09:30 145.980
Oscar 19 23 Oct 12:02:21 12:04:57 14° 56° (NE) 12:07:33 437.125/150
LO-87 23 Oct 12:08:38 12:12:13 53° 100° (E) 12:15:45 145.935 - 145.965
RS-15 23 Oct 12:10:21 12:17:52 20° 263° (W) 12:25:12 29.354- 29.394
ISS 23 Oct 12:10:22 12:13:19 31° 354° (N) 12:16:16 437.550
AIST 2D 23 Oct 12:14:27 12:17:18 23° 265° (W) 12:20:10 435.315
M-CUBED/EXP-1 PRIME 23 Oct 12:28:22 12:30:09 14° 58° (ENE) 12:31:56 437.505
SO-50 23 Oct 12:51:03 12:53:22 14° 27° (NNE) 12:55:42 436.795
YUBILEINY 23 Oct 12:58:40 13:00:25 11° 315° (NW) 13:02:09 435.215
Gurwin Techsat 1B 23 Oct 12:58:41 13:03:13 30° 64° (ENE) 13:07:47 435.225
BEESAT 2 23 Oct 13:00:57 13:04:59 89° 135° (SE) 13:09:05 435.950
VELOX 1 23 Oct 13:02:13 13:05:50 24° 94° (E) 13:09:27 145.980
EO-79 23 Oct 13:02:57 13:06:27 24° 266° (W) 13:09:58 145.935-145.965
AO-85 23 Oct 13:03:44 13:07:33 59° 122° (ESE) 13:11:30 145.980
nSIGHT-1 23 Oct 13:05:28 13:08:22 30° 7° (N) 13:11:16 .
POLYITAN 1 23 Oct 13:08:55 13:12:14 22° 267° (W) 13:15:34 437.675
BEESAT 3 23 Oct 13:10:18 13:13:50 28° 317° (NW) 13:17:22 437.485
SPROUT 23 Oct 13:26:28 13:30:45 62° 101° (E) 13:34:59 437.525
ESTCUBE 1 23 Oct 13:27:43 13:31:50 36° 291° (WNW) 13:35:56 437.505/2401.250
NANOSAT C BR1 23 Oct 13:30:06 13:32:34 15° 270° (W) 13:35:03 145.865
BUGSAT 1 23 Oct 13:30:30 13:34:37 54° 259° (W) 13:38:49 437.445
QB50P2 23 Oct 13:31:22 13:33:06 12° 271° (W) 13:34:50 145.880/145.840
50 SAT 23 Oct 13:35:14 13:36:36 12° 91° (E) 13:37:58 437.505
Oscar 19 23 Oct 13:38:20 13:43:30 86° 75° (ENE) 13:48:41 437.125/150
DUCHIFAT 1 23 Oct 13:39:08 13:41:20 14° 271° (W) 13:43:33 145.980
LO-87 23 Oct 13:43:29 13:45:10 13° 298° (WNW) 13:46:52 145.935 - 145.965
ISS 23 Oct 13:47:13 13:50:19 37° 14° (NNE) 13:53:23 437.550
DX 1 23 Oct 13:57:29 14:00:58 23° 94° (E) 14:04:25 434.975-435.025
M-CUBED/EXP-1 PRIME 23 Oct 14:01:12 14:04:20 39° 255° (WSW) 14:07:26 437.505
AO-7 23 Oct 14:01:39 14:08:44 33° 54° (NE) 14:15:51 .
UKube-1 23 Oct 14:14:14 14:17:35 21° 94° (E) 14:20:55 .
ITAMSAT 1 23 Oct 14:20:45 14:24:08 18° 58° (ENE) 14:27:33 435.822/435.867
SO-50 23 Oct 14:30:21 14:34:52 52° 48° (NE) 14:39:25 436.795
Gurwin Techsat 1B 23 Oct 14:37:59 14:43:00 42° 262° (W) 14:48:03 435.225
VELOX 1 23 Oct 14:38:16 14:42:22 38° 291° (WNW) 14:46:28 145.980
BEESAT 2 23 Oct 14:40:43 14:43:18 16° 326° (NW) 14:45:55 435.950
nSIGHT-1 23 Oct 14:41:46 14:44:58 77° 26° (NNE) 14:48:11 .
AO-85 23 Oct 14:45:21 14:48:18 20° 323° (NW) 14:51:21 145.980
SPROUT 23 Oct 15:03:36 15:06:10 16° 299° (WNW) 15:08:41 437.525
50 SAT 23 Oct 15:05:59 15:09:07 41° 288° (WNW) 15:12:14 437.505
ITUPSAT 1 23 Oct 15:08:49 15:10:27 12° 88° (E) 15:12:03 437.325
PCSat 23 Oct 15:18:42 15:22:48 21° 37° (NE) 15:26:53 145.827
BEESAT 23 Oct 15:20:49 15:23:43 16° 90° (E) 15:26:38 436.000
Oscar 19 23 Oct 15:21:08 15:23:29 13° 272° (W) 15:25:51 437.125/150
ISS 23 Oct 15:23:41 15:26:55 58° 212° (SSW) 15:30:08 437.550
DX 1 23 Oct 15:33:11 15:37:16 39° 291° (WNW) 15:41:20 434.975-435.025
MOZHAYETS 4 23 Oct 15:41:17 15:45:15 28° 95° (E) 15:49:10
UKube-1 23 Oct 15:49:41 15:53:45 40° 291° (WNW) 15:57:47 .
AO-7 23 Oct 15:52:43 16:00:58 69° 254° (WSW) 16:09:16 .
ITAMSAT 1 23 Oct 15:57:48 16:03:00 76° 256° (WSW) 16:08:16 435.822/435.867
CUBESAT XI-V 23 Oct 16:03:53 16:05:19 11° 87° (E) 16:06:43 437.345
SO-50 23 Oct 16:11:23 16:15:02 23° 246° (WSW) 16:18:42 436.795
nSIGHT-1 23 Oct 16:18:41 16:20:55 18° 224° (SW) 16:23:09 .
ITUPSAT 1 23 Oct 16:44:05 16:48:55 87° 289° (WNW) 16:53:42 437.325
CUTE-I 23 Oct 16:55:25 16:58:42 17° 57° (ENE) 17:02:00 437.470
DOVE 4 23 Oct 16:55:44 16:59:50 49° 71° (ENE) 17:04:10 437.250
LilacSat-2 23 Oct 16:56:29 16:58:02 12° 62° (ENE) 16:59:35 437.200
BEESAT 23 Oct 16:57:12 17:01:57 65° 288° (WNW) 17:06:39 436.000
XW-2D 23 Oct 16:58:48 17:00:23 12° 62° (ENE) 17:01:56 145.860 - 145.880
PCSat 23 Oct 17:01:28 17:06:56 88° 237° (WSW) 17:12:21 145.827
XW-2B 23 Oct 17:11:29 17:13:51 16° 64° (ENE) 17:16:13 145.730 - 145.750
MOZHAYETS 4 23 Oct 17:18:18 17:22:25 33° 293° (WNW) 17:26:29
XW-2C 23 Oct 17:33:55 17:37:10 28° 69° (ENE) 17:40:25 145.795 - 145.815
CUBESAT XI-V 23 Oct 17:38:40 17:43:17 84° 286° (WNW) 17:47:55 437.345
HO-68 23 Oct 17:45:17 17:51:05 27° 56° (NE) 17:56:53 435.675
AO-7 23 Oct 17:51:21 17:55:16 14° 275° (W) 17:59:12 .
KAITUO 1B 23 Oct 18:06:50 18:10:25 47° 72° (ENE) 18:14:00 145.475/437.950
CUTE 1.7 + AOD 2 23 Oct 18:09:20 18:12:11 18° 63° (ENE) 18:15:04 437.475
SEEDS 23 Oct 18:10:43 18:12:16 12° 60° (ENE) 18:13:48 437.485
BEESAT 3 23 Oct 18:10:49 18:11:57 11° 28° (NNE) 18:13:04 437.485
CUBEBUG 2 23 Oct 18:12:18 18:14:52 15° 59° (ENE) 18:17:25 437.445
NUDT-PHONESAT 23 Oct 18:14:44 18:18:22 57° 73° (ENE) 18:22:00 437.300
XW-2F 23 Oct 18:14:51 18:18:37 78° 76° (ENE) 18:22:23 145.980 - 146.000
KKS-1 23 Oct 18:18:20 18:22:51 72° 103° (ESE) 18:27:18 437.445
ITUPSAT 1 23 Oct 18:23:53 18:26:00 13° 304° (NW) 18:28:06 437.325
LilacSat-2 23 Oct 18:28:01 18:31:49 64° 259° (W) 18:35:36 437.200
XW-2D 23 Oct 18:30:19 18:34:04 62° 259° (W) 18:37:49 145.860 - 145.880
CUTE-I 23 Oct 18:32:44 18:38:04 83° 256° (WSW) 18:43:27 437.470
DOVE 4 23 Oct 18:35:02 18:37:53 17° 270° (W) 18:40:50 437.250
STARS 23 Oct 18:40:37 18:44:58 51° 100° (E) 18:49:17 437.465
UWE-3 23 Oct 18:42:10 18:45:04 17° 61° (ENE) 18:47:58 435.000/436.395/437.385
XW-2B 23 Oct 18:44:04 18:47:41 44° 261° (W) 18:51:20 145.730 - 145.750
PCSat 23 Oct 18:46:49 18:49:31 14° 257° (WSW) 18:52:11 145.827
XW-2A 23 Oct 18:52:08 18:54:06 15° 65° (ENE) 18:56:05 145.665 - 145.685
YUBILEINY 23 Oct 19:02:42 19:09:41 25° 61° (ENE) 19:16:38 435.215
XW-2C 23 Oct 19:08:13 19:11:19 24° 266° (W) 19:14:25 145.795 - 145.815
CUBESAT XI-V 23 Oct 19:18:24 19:19:55 11° 303° (WNW) 19:21:25 437.345
AO-73 23 Oct 19:22:34 19:25:49 20° 63° (ENE) 19:29:04 145.935
HO-68 23 Oct 19:31:03 19:38:12 72° 256° (WSW) 19:45:26 435.675
BEESAT 2 23 Oct 19:39:12 19:42:10 19° 37° (NE) 19:45:06 435.950
KAITUO 1B 23 Oct 19:42:46 19:44:40 13° 269° (W) 19:46:34 145.475/437.950
SEEDS 23 Oct 19:43:10 19:47:20 79° 258° (WSW) 19:51:31 437.485
CUTE 1.7 + AOD 2 23 Oct 19:43:35 19:47:40 48° 261° (W) 19:51:47 437.475
ZACube-1 23 Oct 19:45:53 19:50:02 35° 68° (ENE) 19:54:11 437.345
CUBEBUG 2 23 Oct 19:46:05 19:50:48 81° 257° (WSW) 19:55:36 437.445
BEESAT 3 23 Oct 19:46:33 19:50:27 49° 49° (NE) 19:54:15 437.485
NUDT-PHONESAT 23 Oct 19:51:20 19:52:34 11° 271° (W) 19:53:48 437.300
AO-85 23 Oct 19:51:54 19:55:16 21° 37° (NE) 19:58:49 145.980
AAUSAT CUBESAT 2 23 Oct 19:55:38 19:59:40 63° 75° (ENE) 20:03:45 437.432
KKS-1 23 Oct 19:56:20 19:58:50 15° 301° (WNW) 20:01:19 437.445
STRAND 1 23 Oct 19:58:44 20:03:24 33° 96° (E) 20:08:02 437.568
O/OREOS (USA 219) 23 Oct 20:14:09 20:18:31 46° 108° (ESE) 20:22:55 437.305
Oscar 11 23 Oct 20:16:00 20:20:04 42° 70° (ENE) 20:24:09 .
UWE-3 23 Oct 20:16:20 20:20:58 68° 259° (WSW) 20:25:40 435.000/436.395/437.385
CUTE-I 23 Oct 20:17:11 20:18:56 12° 274° (W) 20:20:43 437.470
STARS 23 Oct 20:17:48 20:20:56 19° 298° (WNW) 20:24:05 437.465
XW-2A 23 Oct 20:23:18 20:26:31 38° 262° (W) 20:29:43 145.665 - 145.685
FO-29 23 Oct 20:45:39 20:51:23 25° 91° (E) 20:57:27 435.910
DELFI C3 23 Oct 20:49:21 20:52:18 21° 65° (ENE) 20:55:15 145.870
Max Valier Satellite 23 Oct 20:55:59 20:58:28 17° 65° (ENE) 21:00:57 145.860
AO-73 23 Oct 20:57:13 21:01:41 52° 261° (W) 21:06:08 145.935
YUBILEINY 23 Oct 20:58:46 21:07:36 83° 264° (W) 21:16:26 435.215
BEESAT 2 23 Oct 21:16:17 21:20:19 68° 237° (WSW) 21:24:16 435.950
ZACube-1 23 Oct 21:22:25 21:26:20 27° 266° (W) 21:30:14 437.345
HO-68 23 Oct 21:23:58 21:27:12 13° 275° (W) 21:30:26 435.675
BEESAT 3 23 Oct 21:24:53 21:27:38 18° 247° (WSW) 21:30:21 437.485
AO-85 23 Oct 21:31:36 21:36:08 77° 236° (SW) 21:41:00 145.980
AAUSAT CUBESAT 2 23 Oct 21:33:49 21:35:33 12° 271° (W) 21:37:17 437.432
STRAND 1 23 Oct 21:37:54 21:42:34 35° 294° (WNW) 21:47:12 437.568
TIGRISAT 23 Oct 21:40:02 21:41:16 11° 86° (E) 21:42:30 435.000
Oscar 11 23 Oct 21:53:09 21:56:23 20° 268° (W) 21:59:37 .
O/OREOS (USA 219) 23 Oct 21:54:27 21:58:09 24° 308° (NW) 22:01:54 437.305
EO-88 23 Oct 22:09:28 22:13:07 87° 77° (ENE) 22:16:47 145.990 - 145.960
RS-15 23 Oct 22:17:31 22:22:23 13° 92° (E) 22:27:14 29.354- 29.394
DELFI C3 23 Oct 22:23:15 22:26:51 35° 263° (W) 22:30:28 145.870
Max Valier Satellite 23 Oct 22:28:29 22:32:00 39° 262° (W) 22:35:32 145.860
FO-29 23 Oct 22:29:53 22:36:51 73° 288° (WNW) 22:44:29 435.910
LO-87 23 Oct 22:46:48 22:50:00 31° 70° (ENE) 22:53:15 145.935 - 145.965
ESTCUBE 1 23 Oct 22:52:57 22:56:54 31° 67° (ENE) 23:00:50 437.505/2401.250
PRISM 23 Oct 22:53:49 22:57:21 27° 96° (E) 23:00:54 437.425
YUBILEINY 23 Oct 22:57:32 23:02:59 19° 285° (WNW) 23:08:28 435.215
UNISAT 6 23 Oct 23:00:17 23:04:55 77° 103° (ESE) 23:09:24 437.425
TIGRISAT 23 Oct 23:14:00 23:18:37 85° 285° (WNW) 23:23:06 435.000
AO-85 23 Oct 23:14:52 23:15:53 11° 252° (WSW) 23:16:56 145.980
AIST 2D 23 Oct 23:36:30 23:39:07 20° 94° (E) 23:41:43 435.315
VELOX 1 24 Oct 00:01:40 00:05:26 29° 66° (ENE) 00:09:14 145.980
FO-29 24 Oct 00:16:38 00:20:56 18° 306° (NW) 00:25:27 435.910
RS-15 24 Oct 00:20:07 00:31:59 59° 114° (ESE) 00:43:50 29.354- 29.394
LO-87 24 Oct 00:20:49 00:23:28 19° 267° (W) 00:26:10 145.935 - 145.965
SPROUT 24 Oct 00:21:39 00:25:53 63° 73° (ENE) 00:30:09 437.525
PRISM 24 Oct 00:29:00 00:32:36 29° 293° (WNW) 00:36:11 437.425
ESTCUBE 1 24 Oct 00:29:45 00:33:40 29° 264° (W) 00:37:36 437.505/2401.250
UNISAT 6 24 Oct 00:38:35 00:40:59 14° 301° (WNW) 00:43:21 437.425
EO-79 24 Oct 00:44:00 00:48:06 44° 99° (E) 00:52:09 145.935-145.965
POLYITAN 1 24 Oct 00:49:52 00:54:02 50° 100° (E) 00:58:08 437.675
TIGRISAT 24 Oct 00:52:58 00:54:31 12° 303° (WNW) 00:56:02 435.000
DX 1 24 Oct 00:55:15 00:58:54 27° 66° (ENE) 01:02:35 434.975-435.025
AIST 2D 24 Oct 01:09:19 01:12:18 27° 290° (WNW) 01:15:17 435.315
NANOSAT C BR1 24 Oct 01:09:25 01:13:41 74° 102° (ESE) 01:17:54 145.865
QB50P2 24 Oct 01:10:24 01:14:42 87° 291° (WNW) 01:18:57 145.880/145.840
BUGSAT 1 24 Oct 01:10:25 01:13:21 18° 92° (E) 01:16:13 437.445
UKube-1 24 Oct 01:10:53 01:14:27 26° 65° (ENE) 01:18:01 .
DUCHIFAT 1 24 Oct 01:17:50 01:22:06 80° 105° (ESE) 01:26:18 145.980
50 SAT 24 Oct 01:36:08 01:39:22 87° 82° (E) 01:42:40 437.505
VELOX 1 24 Oct 01:37:56 01:41:49 30° 264° (W) 01:45:44 145.980
Oscar 19 24 Oct 01:47:51 01:52:01 24° 93° (E) 01:56:08 437.125/150
NO-84 24 Oct 01:52:27 01:56:00 25° 130° (SE) 01:59:33 435.350 FM
SPROUT 24 Oct 02:00:02 02:02:12 14° 271° (W) 02:04:22 437.525
ITUPSAT 1 24 Oct 02:16:59 02:20:27 20° 61° (ENE) 02:23:56 437.325
EO-79 24 Oct 02:20:26 02:23:33 20° 297° (WNW) 02:26:40 145.935-145.965
POLYITAN 1 24 Oct 02:26:33 02:29:26 18° 297° (WNW) 02:32:17 437.675
BEESAT 24 Oct 02:29:08 02:33:03 26° 64° (ENE) 02:36:59 436.000
DX 1 24 Oct 02:31:07 02:34:59 32° 263° (W) 02:38:54 434.975-435.025
RS-15 24 Oct 02:32:41 02:44:46 56° 320° (NW) 02:56:45 29.354- 29.394
BUGSAT 1 24 Oct 02:44:53 02:48:55 45° 289° (WNW) 02:52:54 437.445
MOZHAYETS 4 24 Oct 02:45:14 02:49:28 37° 68° (ENE) 02:53:43
UKube-1 24 Oct 02:46:25 02:50:19 34° 263° (W) 02:54:16 .
NANOSAT C BR1 24 Oct 02:46:49 02:48:48 13° 300° (WNW) 02:50:46 145.865
QB50P2 24 Oct 02:48:47 02:49:46 11° 302° (WNW) 02:50:44 145.880/145.840
Gurwin Techsat 1B 24 Oct 02:51:06 02:56:24 63° 102° (ESE) 03:01:40 435.225
DUCHIFAT 1 24 Oct 02:55:26 02:57:08 12° 301° (WNW) 02:58:50 145.980
CUBESAT XI-V 24 Oct 03:08:57 03:11:50 17° 61° (ENE) 03:14:41 437.345
M-CUBED/EXP-1 PRIME 24 Oct 03:09:49 03:13:27 79° 109° (ESE) 03:17:22 437.505
Oscar 19 24 Oct 03:26:39 03:31:33 47° 291° (WNW) 03:36:25 437.125/150
NO-84 24 Oct 03:28:53 03:33:10 66° 328° (NNW) 03:37:24 435.350 FM
KKS-1 24 Oct 03:45:24 03:47:02 12° 57° (ENE) 03:48:40 437.445
AO-7 24 Oct 03:51:35 03:59:03 35° 97° (E) 04:06:29 .
ITUPSAT 1 24 Oct 03:53:09 03:57:52 56° 259° (W) 04:02:38 437.325
BEESAT 24 Oct 04:06:05 04:10:37 42° 262° (W) 04:15:11 436.000
ITAMSAT 1 24 Oct 04:08:19 04:12:58 31° 96° (E) 04:17:36 435.822/435.867
MOZHAYETS 4 24 Oct 04:22:48 04:26:41 26° 266° (W) 04:30:35
Gurwin Techsat 1B 24 Oct 04:31:58 04:35:53 21° 300° (WNW) 04:39:49 435.225
O/OREOS (USA 219) 24 Oct 04:42:54 04:46:17 20° 50° (NE) 04:49:40 437.305
CUBESAT XI-V 24 Oct 04:44:06 04:48:42 65° 259° (W) 04:53:18 437.345
M-CUBED/EXP-1 PRIME 24 Oct 04:46:35 04:47:27 11° 304° (NW) 04:48:19 437.505
RS-15 24 Oct 04:49:59 05:00:40 32° 351° (N) 05:11:05 29.354- 29.394
DOVE 4 24 Oct 04:52:38 04:55:11 14° 88° (E) 04:57:45 437.250
NO-84 24 Oct 05:07:31 05:11:10 27° 348° (NNW) 05:14:43 435.350 FM
KKS-1 24 Oct 05:18:26 05:22:52 89° 75° (ENE) 05:27:22 437.445
STARS 24 Oct 05:39:12 05:43:32 62° 72° (ENE) 05:47:55 437.465
STRAND 1 24 Oct 05:43:17 05:43:44 10° 52° (NE) 05:44:11 437.568
AO-7 24 Oct 05:44:05 05:52:11 60° 297° (WNW) 06:00:18 .
ITAMSAT 1 24 Oct 05:47:39 05:52:29 38° 294° (WNW) 05:57:17 435.822/435.867
LilacSat-2 24 Oct 06:00:38 06:01:47 11° 89° (E) 06:02:56 437.200
XW-2D 24 Oct 06:02:11 06:03:18 11° 89° (E) 06:04:24 145.860 - 145.880
XW-2B 24 Oct 06:14:49 06:17:02 15° 91° (E) 06:19:16 145.730 - 145.750
O/OREOS (USA 219) 24 Oct 06:21:33 06:26:06 59° 250° (WSW) 06:30:36 437.305
SO-50 24 Oct 06:26:50 06:31:14 62° 122° (ESE) 06:35:42 436.795
DOVE 4 24 Oct 06:28:19 06:33:24 85° 284° (WNW) 06:38:39 437.250
XW-2C 24 Oct 06:37:32 06:40:46 27° 95° (E) 06:44:01 145.795 - 145.815
NO-84 24 Oct 06:46:03 06:49:33 25° 9° (N) 06:52:53 435.350 FM
CUTE-I 24 Oct 06:47:23 06:52:13 33° 96° (E) 06:57:01 437.470
HO-68 24 Oct 06:57:04 07:02:08 20° 89° (E) 07:07:10 435.675
FO-29 24 Oct 07:05:00 07:06:56 12° 49° (NE) 07:08:55 435.910
RS-15 24 Oct 07:06:13 07:17:28 40° 26° (NNE) 07:28:09 29.354- 29.394
KAITUO 1B 24 Oct 07:08:58 07:12:33 46° 99° (E) 07:16:06 145.475/437.950
NUDT-PHONESAT 24 Oct 07:15:52 07:19:29 54° 101° (E) 07:23:04 437.300
STRAND 1 24 Oct 07:16:50 07:21:53 61° 71° (ENE) 07:26:59 437.568
STARS 24 Oct 07:17:51 07:20:17 15° 270° (W) 07:22:45 437.465
XW-2F 24 Oct 07:18:10 07:21:55 80° 100° (E) 07:25:38 145.980 - 146.000
SEEDS 24 Oct 07:25:34 07:27:51 14° 90° (E) 07:30:09 437.485
CUTE 1.7 + AOD 2 24 Oct 07:26:05 07:29:27 23° 93° (E) 07:32:50 437.475
LilacSat-2 24 Oct 07:32:43 07:36:27 59° 286° (WNW) 07:40:08 437.200
XW-2D 24 Oct 07:34:10 07:37:51 59° 286° (WNW) 07:41:32 145.860 - 145.880
CUBEBUG 2 24 Oct 07:35:25 07:38:40 19° 90° (E) 07:41:51 437.445
AO-7 24 Oct 07:38:30 07:43:19 17° 319° (NW) 07:48:08 .
PCSat 24 Oct 07:45:24 07:50:36 51° 115° (ESE) 07:55:51 145.827
XW-2B 24 Oct 07:47:53 07:51:27 42° 288° (WNW) 07:54:59 145.730 - 145.750
UWE-3 24 Oct 08:04:14 08:07:37 21° 91° (E) 08:10:55 435.000/436.395/437.385
ISS 24 Oct 08:07:44 08:08:16 10° 132° (SE) 08:08:48 437.550
DOVE 4 24 Oct 08:07:54 08:10:22 14° 302° (WNW) 08:12:52 437.250
SO-50 24 Oct 08:08:26 08:12:04 23° 322° (NW) 08:15:44 436.795
YUBILEINY 24 Oct 08:08:39 08:15:10 24° 79° (ENE) 08:21:42 435.215
XW-2C 24 Oct 08:11:50 08:14:51 23° 293° (WNW) 08:17:51 145.795 - 145.815
NO-84 24 Oct 08:23:35 08:27:36 59° 30° (NNE) 08:31:19 435.350 FM
CUTE-I 24 Oct 08:27:21 08:32:18 38° 294° (WNW) 08:37:14 437.470
UNISAT 6 24 Oct 08:27:29 08:29:30 13° 58° (ENE) 08:31:32 437.425
TIGRISAT 24 Oct 08:40:14 08:42:56 15° 60° (ENE) 08:45:39 435.000
AO-73 24 Oct 08:43:05 08:46:38 24° 93° (E) 08:50:06 145.935
HO-68 24 Oct 08:43:27 08:50:42 85° 290° (WNW) 08:57:55 435.675
KAITUO 1B 24 Oct 08:44:05 08:46:10 15° 296° (WNW) 08:48:14 145.475/437.950
FO-29 24 Oct 08:45:27 08:50:43 66° 72° (ENE) 08:56:34 435.910
NUDT-PHONESAT 24 Oct 08:51:14 08:52:54 13° 298° (WNW) 08:54:33 437.300
nSIGHT-1 24 Oct 08:57:11 09:00:05 31° 142° (SE) 09:02:58 .
STRAND 1 24 Oct 08:57:54 09:01:29 19° 269° (W) 09:05:06 437.568
SEEDS 24 Oct 08:59:48 09:03:54 56° 287° (WNW) 09:07:59 437.485
CUTE 1.7 + AOD 2 24 Oct 09:01:32 09:05:22 35° 291° (WNW) 09:09:11 437.475
ZACube-1 24 Oct 09:07:26 09:11:41 49° 99° (E) 09:15:48 437.345
AAUSAT CUBESAT 2 24 Oct 09:10:09 09:14:18 85° 103° (ESE) 09:18:27 437.432
CUBEBUG 2 24 Oct 09:11:07 09:15:35 50° 289° (WNW) 09:19:55 437.445
XW-2A 24 Oct 09:14:41 09:17:56 52° 286° (WNW) 09:21:11 145.665 - 145.685
RS-15 24 Oct 09:19:34 09:31:39 89° 54° (NE) 09:43:02 29.354- 29.394
PCSat 24 Oct 09:29:26 09:34:14 31° 316° (NW) 09:39:05 145.827
Oscar 11 24 Oct 09:36:15 09:40:31 61° 101° (E) 09:44:46 .
UWE-3 24 Oct 09:40:02 09:44:16 42° 290° (WNW) 09:48:23 435.000/436.395/437.385
ISS 24 Oct 09:40:57 09:44:10 66° 149° (SSE) 09:47:25 437.550
PRISM 24 Oct 09:45:21 09:48:46 27° 66° (ENE) 09:52:14 437.425
Max Valier Satellite 24 Oct 09:56:36 09:58:46 15° 91° (E) 10:00:56 145.860
DELFI C3 24 Oct 09:57:25 10:00:37 23° 94° (E) 10:03:48 145.870
UNISAT 6 24 Oct 10:00:47 10:05:28 88° 69° (ENE) 10:10:12 437.425
NO-84 24 Oct 10:01:32 10:04:41 24° 230° (SW) 10:07:38 435.350 FM
YUBILEINY 24 Oct 10:02:16 10:10:58 79° 280° (W) 10:19:46 435.215
AIST 2D 24 Oct 10:14:19 10:15:42 12° 63° (ENE) 10:17:05 435.315
TIGRISAT 24 Oct 10:14:20 10:19:01 75° 257° (WSW) 10:23:45 435.000
AO-73 24 Oct 10:19:01 10:22:56 34° 292° (WNW) 10:26:44 145.935
HO-68 24 Oct 10:32:28 10:37:27 21° 309° (NW) 10:42:27 435.675
QB50P2 24 Oct 10:32:30 10:33:59 12° 58° (ENE) 10:35:29 145.880/145.840
FO-29 24 Oct 10:32:55 10:36:34 18° 273° (W) 10:40:26 435.910
nSIGHT-1 24 Oct 10:33:08 10:36:16 49° 340° (NNW) 10:39:23 .
ZACube-1 24 Oct 10:44:35 10:47:35 18° 297° (WNW) 10:50:32 437.345
AAUSAT CUBESAT 2 24 Oct 10:48:00 10:49:06 11° 301° (WNW) 10:50:13 437.432
EO-88 24 Oct 11:08:55 11:12:33 80° 101° (E) 11:16:11 145.990 - 145.960
BEESAT 2 24 Oct 11:12:38 11:13:21 10° 108° (ESE) 11:14:04 435.950
Oscar 11 24 Oct 11:13:39 11:16:11 15° 299° (WNW) 11:18:42 .
BEESAT 3 24 Oct 11:15:14 11:18:54 35° 118° (ESE) 11:22:36 437.485
ISS 24 Oct 11:17:46 11:20:49 35° 348° (NNW) 11:23:52 437.550
PCSat 24 Oct 11:18:33 11:19:28 10° 340° (NNW) 11:20:23 145.827
PRISM 24 Oct 11:20:28 11:23:59 28° 264° (W) 11:27:31 437.425
Max Valier Satellite 24 Oct 11:29:19 11:32:48 40° 289° (WNW) 11:36:14 145.860
DELFI C3 24 Oct 11:31:52 11:35:24 31° 291° (WNW) 11:38:56 145.870
EO-79 24 Oct 11:38:21 11:42:25 45° 71° (ENE) 11:46:31 145.935-145.965
UNISAT 6 24 Oct 11:41:27 11:42:50 11° 274° (W) 11:44:12 437.425
LO-87 24 Oct 11:44:09 11:47:17 26° 96° (E) 11:50:22 145.935 - 145.965
POLYITAN 1 24 Oct 11:44:18 11:48:27 52° 72° (ENE) 11:52:39 437.675
AIST 2D 24 Oct 11:45:02 11:48:27 52° 260° (W) 11:51:53 435.315
